TimePDT,TemperatureF,Dew PointF,Humidity,Sea Level PressureIn,VisibilityMPH,Wind Direction,Wind SpeedMPH,Gust SpeedMPH,PrecipitationIn,Events,Conditions,WindDirDegrees,DateUTC
12:15 AM,42.8,42.8,100,29.96,10.0,NNW,5.8,-,N/A,,Clear,330,2013-10-21 07:15:00
12:35 AM,44.6,44.6,100,29.96,10.0,NNW,6.9,-,N/A,,Clear,340,2013-10-21 07:35:00
12:55 AM,42.8,42.8,100,29.96,10.0,NNW,5.8,-,N/A,,Clear,340,2013-10-21 07:55:00
1:15 AM,44.6,44.6,100,29.96,10.0,North,6.9,-,N/A,,Clear,350,2013-10-21 08:15:00
1:35 AM,46.4,46.4,100,29.97,10.0,NNW,3.5,-,N/A,,Scattered Clouds,330,2013-10-21 08:35:00
1:55 AM,44.6,44.6,100,29.97,10.0,Calm,Calm,-,N/A,,Mostly Cloudy,0,2013-10-21 08:55:00
2:15 AM,44.6,44.6,100,29.97,10.0,Calm,Calm,-,N/A,,Scattered Clouds,0,2013-10-21 09:15:00
2:35 AM,44.6,44.6,100,29.98,10.0,Calm,Calm,-,N/A,,Scattered Clouds,0,2013-10-21 09:35:00
2:55 AM,44.6,44.6,100,29.98,10.0,Calm,Calm,-,N/A,,Overcast,0,2013-10-21 09:55:00
3:15 AM,44.6,44.6,100,29.97,10.0,Calm,Calm,-,N/A,,Unknown,0,2013-10-21 10:15:00
3:35 AM,44.6,44.6,100,29.97,10.0,Calm,Calm,-,N/A,,Unknown,0,2013-10-21 10:35:00
3:55 AM,44.6,44.6,100,29.97,10.0,Calm,Calm,-,N/A,,Unknown,0,2013-10-21 10:55:00
4:15 AM,44.6,44.6,100,29.98,10.0,Calm,Calm,-,N/A,,Unknown,0,2013-10-21 11:15:00
4:35 AM,46.4,46.4,100,29.98,6.0,Calm,Calm,-,N/A,,Mist,0,2013-10-21 11:35:00
4:55 AM,46.4,46.4,100,29.98,8.0,Calm,Calm,-,N/A,,Overcast,0,2013-10-21 11:55:00
5:15 AM,46.4,46.4,100,29.98,5.0,Calm,Calm,-,N/A,,Overcast,0,2013-10-21 12:15:00
5:35 AM,46.4,46.4,100,29.98,3.0,Calm,Calm,-,N/A,,Overcast,0,2013-10-21 12:35:00
5:55 AM,46.4,46.4,100,29.99,1.5,West,3.5,-,N/A,,Overcast,280,2013-10-21 12:55:00
6:15 AM,46.4,46.4,100,29.99,0.8,WSW,3.5,-,N/A,,Overcast,250,2013-10-21 13:15:00
6:35 AM,46.4,46.4,100,29.99,0.2,Calm,Calm,-,N/A,Fog,Fog,0,2013-10-21 13:35:00
6:55 AM,46.4,46.4,100,29.99,0.2,WSW,3.5,-,N/A,Fog,Fog,250,2013-10-21 13:55:00
7:15 AM,46.4,46.4,100,29.99,0.2,Calm,Calm,-,N/A,Fog,Fog,0,2013-10-21 14:15:00
7:35 AM,44.6,44.6,100,30.00,0.2,West,3.5,-,N/A,Fog,Fog,270,2013-10-21 14:35:00
7:55 AM,44.6,44.6,100,30.00,0.2,West,3.5,-,N/A,Fog,Fog,270,2013-10-21 14:55:00
8:15 AM,44.6,44.6,100,30.01,0.2,Calm,Calm,-,N/A,Fog,Fog,0,2013-10-21 15:15:00
8:35 AM,46.4,46.4,100,30.01,0.2,Calm,Calm,-,N/A,Fog,Fog,0,2013-10-21 15:35:00
8:55 AM,46.4,46.4,100,30.02,0.2,West,3.5,-,N/A,Fog,Fog,270,2013-10-21 15:55:00
9:15 AM,46.4,46.4,100,30.02,0.2,Calm,Calm,-,N/A,Fog,Fog,0,2013-10-21 16:15:00
9:35 AM,46.4,46.4,100,30.03,0.5,Calm,Calm,-,N/A,Fog,Fog,0,2013-10-21 16:35:00
9:55 AM,48.2,48.2,100,30.03,1.2,WSW,3.5,-,N/A,,Mist,240,2013-10-21 16:55:00
10:15 AM,48.2,48.2,100,30.03,3.0,Calm,Calm,-,N/A,,Mist,0,2013-10-21 17:15:00
10:55 AM,48.2,48.2,100,30.03,7.0,Calm,Calm,-,N/A,,Unknown,0,2013-10-21 17:55:00
11:15 AM,50.0,50.0,100,30.03,9.0,Calm,Calm,-,N/A,,Unknown,0,2013-10-21 18:15:00
11:35 AM,51.8,51.8,100,30.02,10.0,Calm,Calm,-,N/A,,Overcast,0,2013-10-21 18:35:00
11:55 AM,55.4,51.8,88,30.01,10.0,Calm,Calm,-,N/A,,Scattered Clouds,0,2013-10-21 18:55:00
12:15 PM,57.2,51.8,82,30.01,10.0,NNW,3.5,-,N/A,,Clear,330,2013-10-21 19:15:00
12:35 PM,57.2,51.8,82,30.00,10.0,NNE,3.5,-,N/A,,Clear,20,2013-10-21 19:35:00
12:55 PM,60.8,51.8,72,29.99,10.0,Calm,Calm,-,N/A,,Clear,0,2013-10-21 19:55:00
1:15 PM,62.6,51.8,68,29.98,10.0,Calm,Calm,-,N/A,,Clear,0,2013-10-21 20:15:00
1:35 PM,64.4,51.8,64,29.97,10.0,NNE,5.8,-,N/A,,Clear,30,2013-10-21 20:35:00
1:55 PM,66.2,50.0,56,29.96,10.0,NE,3.5,-,N/A,,Clear,40,2013-10-21 20:55:00
2:15 PM,68.0,50.0,52,29.95,10.0,Calm,Calm,-,N/A,,Clear,0,2013-10-21 21:15:00
2:35 PM,68.0,50.0,52,29.94,10.0,Calm,Calm,-,N/A,,Clear,0,2013-10-21 21:35:00
2:55 PM,71.6,50.0,46,29.93,10.0,Calm,Calm,-,N/A,,Clear,0,2013-10-21 21:55:00
3:15 PM,71.6,50.0,46,29.93,10.0,SE,3.5,-,N/A,,Clear,130,2013-10-21 22:15:00
3:35 PM,71.6,50.0,46,29.92,10.0,SE,3.5,-,N/A,,Clear,130,2013-10-21 22:35:00
3:55 PM,73.4,50.0,44,29.92,10.0,SE,5.8,-,N/A,,Clear,130,2013-10-21 22:55:00
4:15 PM,73.4,51.8,47,29.92,10.0,SE,3.5,-,N/A,,Clear,140,2013-10-21 23:15:00
4:35 PM,71.6,51.8,50,29.92,10.0,ENE,5.8,-,N/A,,Clear,70,2013-10-21 23:35:00
4:55 PM,71.6,50.0,46,29.92,10.0,NNE,8.1,-,N/A,,Clear,20,2013-10-21 23:55:00
5:15 PM,71.6,50.0,46,29.92,10.0,North,10.4,-,N/A,,Clear,350,2013-10-22 00:15:00
5:35 PM,68.0,48.2,49,29.92,10.0,North,10.4,-,N/A,,Clear,350,2013-10-22 00:35:00
5:55 PM,66.2,48.2,52,29.92,10.0,NNW,8.1,-,N/A,,Clear,340,2013-10-22 00:55:00
6:15 PM,64.4,48.2,56,29.92,10.0,NW,3.5,-,N/A,,Clear,310,2013-10-22 01:15:00
6:35 PM,62.6,48.2,59,29.93,10.0,SE,3.5,-,N/A,,Clear,130,2013-10-22 01:35:00
6:55 PM,59.0,48.2,67,29.93,10.0,NE,3.5,-,N/A,,Clear,50,2013-10-22 01:55:00
7:15 PM,57.2,48.2,72,29.94,10.0,North,6.9,-,N/A,,Unknown,10,2013-10-22 02:15:00
7:35 PM,53.6,48.2,82,29.94,10.0,North,8.1,-,N/A,,Unknown,10,2013-10-22 02:35:00
7:55 PM,53.6,48.2,82,29.95,10.0,North,9.2,-,N/A,,Unknown,10,2013-10-22 02:55:00
8:15 PM,50.0,48.2,94,29.96,10.0,North,6.9,-,N/A,,Unknown,360,2013-10-22 03:15:00
8:35 PM,50.0,48.2,94,29.96,10.0,North,8.1,-,N/A,,Unknown,360,2013-10-22 03:35:00
8:55 PM,50.0,48.2,94,29.97,10.0,North,9.2,-,N/A,,Unknown,10,2013-10-22 03:55:00
9:15 PM,48.2,48.2,100,29.97,10.0,North,8.1,-,N/A,,Unknown,360,2013-10-22 04:15:00
9:35 PM,48.2,48.2,100,29.98,10.0,North,6.9,-,N/A,,Clear,360,2013-10-22 04:35:00
9:55 PM,48.2,48.2,100,29.98,10.0,North,8.1,-,N/A,,Clear,350,2013-10-22 04:55:00
10:15 PM,46.4,46.4,100,29.99,10.0,North,6.9,-,N/A,,Clear,350,2013-10-22 05:15:00
10:35 PM,44.6,44.6,100,29.99,10.0,NNW,5.8,-,N/A,,Clear,340,2013-10-22 05:35:00
10:55 PM,44.6,44.6,100,30.00,10.0,NNW,6.9,-,N/A,,Clear,340,2013-10-22 05:55:00
11:15 PM,44.6,44.6,100,30.00,10.0,NNW,5.8,-,N/A,,Clear,340,2013-10-22 06:15:00
11:35 PM,44.6,44.6,100,30.00,10.0,North,5.8,-,N/A,,Clear,360,2013-10-22 06:35:00
11:55 PM,42.8,42.8,100,30.00,9.0,North,5.8,-,N/A,,Partly Cloudy,350,2013-10-22 06:55:00